GBNKE EGHQ-EGHH

Flight info

Callsign GBNKE
Flight time 1h 9m
Altitude 4000
Route DCT
Aircraft PA24/L-ICAO/7000

Departure

Time 2026-05-05 18:34
Airport Cornwall Airport Newquay (EGHQ)

Arrival

Time 2026-05-05 19:43
Airport Bournemouth Airport (EGHH)
Time Latitude Longitude Altitude Speed Heading
2026-05-05 17:53 50.44463 -4.99647 340 ft 0 kts 155°
2026-05-05 18:19 50.44423 -4.99695 335 ft 11 kts 255°
2026-05-05 18:19 50.44386 -4.99793 332 ft 10 kts 194°
2026-05-05 18:19 50.44351 -4.99722 330 ft 11 kts 117°
2026-05-05 18:20 50.44307 -4.99602 334 ft 14 kts 119°
2026-05-05 18:20 50.44278 -4.99518 333 ft 6 kts 124°
2026-05-05 18:20 50.44219 -4.99484 329 ft 8 kts 181°
2026-05-05 18:20 50.44209 -4.99485 331 ft 0 kts 179°
2026-05-05 18:27 50.44183 -4.99485 330 ft 8 kts 182°
2026-05-05 18:27 50.44169 -4.99486 330 ft 0 kts 181°
2026-05-05 18:32 50.44165 -4.99486 330 ft 3 kts 181°
2026-05-05 18:32 50.44108 -4.99489 330 ft 13 kts 189°
2026-05-05 18:32 50.44106 -4.99600 326 ft 0 kts 302°
2026-05-05 18:33 50.44107 -4.99600 326 ft 1 kts 302°
2026-05-05 18:33 50.44186 -4.99809 326 ft 49 kts 303°
2026-05-05 18:33 50.44386 -5.00410 383 ft 66 kts 303°
2026-05-05 18:33 50.44588 -5.01075 480 ft 76 kts 302°
2026-05-05 18:34 50.44845 -5.01780 636 ft 77 kts 316°
2026-05-05 18:34 50.45291 -5.02167 808 ft 75 kts 353°
2026-05-05 18:34 50.45770 -5.02056 1042 ft 71 kts 23°
2026-05-05 18:34 50.46141 -5.01442 1141 ft 85 kts 59°
2026-05-05 18:35 50.46253 -5.00471 1287 ft 96 kts 75°
2026-05-05 18:35 50.46306 -4.99431 1451 ft 96 kts 73°
2026-05-05 18:35 50.46349 -4.98394 1575 ft 95 kts 76°
2026-05-05 18:35 50.46408 -4.97370 1736 ft 93 kts 74°
2026-05-05 18:36 50.46456 -4.96347 1854 ft 95 kts 76°
2026-05-05 18:36 50.46514 -4.95316 1985 ft 95 kts 76°
2026-05-05 18:36 50.46555 -4.94281 2043 ft 101 kts 78°
2026-05-05 18:36 50.46594 -4.93138 2163 ft 101 kts 76°
2026-05-05 18:37 50.46648 -4.92023 2246 ft 106 kts 76°
2026-05-05 18:37 50.46696 -4.90881 2379 ft 103 kts 77°
2026-05-05 18:37 50.46715 -4.89747 2445 ft 104 kts 80°
2026-05-05 18:37 50.46712 -4.88619 2563 ft 103 kts 83°
2026-05-05 18:38 50.46692 -4.87485 2643 ft 105 kts 82°
2026-05-05 18:38 50.46699 -4.86348 2770 ft 105 kts 78°
2026-05-05 18:38 50.46733 -4.85256 2857 ft 106 kts 76°
2026-05-05 18:38 50.46795 -4.84133 2970 ft 104 kts 76°
2026-05-05 18:39 50.46869 -4.83002 3058 ft 103 kts 73°
2026-05-05 18:39 50.47014 -4.81910 3166 ft 101 kts 64°
2026-05-05 18:39 50.47227 -4.80866 3264 ft 101 kts 67°
2026-05-05 18:39 50.47398 -4.79796 3362 ft 102 kts 67°
2026-05-05 18:40 50.47561 -4.78697 3437 ft 103 kts 69°
2026-05-05 18:40 50.47700 -4.77590 3504 ft 104 kts 71°
2026-05-05 18:40 50.47792 -4.76452 3564 ft 106 kts 79°
2026-05-05 18:40 50.47760 -4.75278 3641 ft 108 kts 87°
2026-05-05 18:41 50.47722 -4.74075 3680 ft 112 kts 82°
2026-05-05 18:41 50.47749 -4.72835 3714 ft 114 kts 80°
2026-05-05 18:41 50.47759 -4.71614 3775 ft 112 kts 83°
2026-05-05 18:41 50.47737 -4.70343 3797 ft 117 kts 82°
2026-05-05 18:42 50.47761 -4.69087 3885 ft 114 kts 80°
2026-05-05 18:42 50.47854 -4.67831 3917 ft 117 kts 73°
2026-05-05 18:42 50.48024 -4.66565 3898 ft 122 kts 70°
2026-05-05 18:42 50.48168 -4.65285 3946 ft 118 kts 77°
2026-05-05 18:43 50.48232 -4.64104 3966 ft 122 kts 78°
2026-05-05 18:43 50.48317 -4.62774 3969 ft 122 kts 74°
2026-05-05 18:43 50.48441 -4.61489 3995 ft 119 kts 74°
2026-05-05 18:43 50.48550 -4.60177 3936 ft 122 kts 76°
2026-05-05 18:44 50.48676 -4.58882 3968 ft 119 kts 72°
2026-05-05 18:44 50.48818 -4.57578 3936 ft 121 kts 73°
2026-05-05 18:44 50.48941 -4.56299 3939 ft 117 kts 73°
2026-05-05 18:44 50.49041 -4.55000 3916 ft 122 kts 76°
2026-05-05 18:45 50.49127 -4.53675 3928 ft 122 kts 76°
2026-05-05 18:45 50.49266 -4.52371 3928 ft 121 kts 72°
2026-05-05 18:45 50.49441 -4.51090 3934 ft 120 kts 70°
2026-05-05 18:45 50.49569 -4.49794 3932 ft 121 kts 75°
2026-05-05 18:46 50.49684 -4.48483 3960 ft 121 kts 73°
2026-05-05 18:46 50.49811 -4.47178 3959 ft 121 kts 73°
2026-05-05 18:46 50.49953 -4.45874 3957 ft 121 kts 75°
2026-05-05 18:46 50.50046 -4.44548 3952 ft 123 kts 79°
2026-05-05 18:47 50.50111 -4.43210 3941 ft 122 kts 78°
2026-05-05 18:47 50.50184 -4.41886 3953 ft 121 kts 76°
2026-05-05 18:47 50.50320 -4.40586 3976 ft 120 kts 72°
2026-05-05 18:47 50.50491 -4.39356 3989 ft 121 kts 71°
2026-05-05 18:48 50.50710 -4.38032 3996 ft 120 kts 69°
2026-05-05 18:48 50.50928 -4.36768 4012 ft 120 kts 67°
2026-05-05 18:48 50.51128 -4.35501 4018 ft 120 kts 72°
2026-05-05 18:48 50.51187 -4.34184 4000 ft 122 kts 83°
2026-05-05 18:49 50.51155 -4.32834 4016 ft 125 kts 85°
2026-05-05 18:49 50.51184 -4.31473 4023 ft 124 kts 79°
2026-05-05 18:49 50.51262 -4.30128 4027 ft 121 kts 75°
2026-05-05 18:49 50.51387 -4.28812 3978 ft 123 kts 79°
2026-05-05 18:50 50.51403 -4.27482 3987 ft 121 kts 80°
2026-05-05 18:50 50.51416 -4.26337 3970 ft 121 kts 81°
2026-05-05 18:50 50.51453 -4.25021 3965 ft 120 kts 79°
2026-05-05 18:50 50.51492 -4.23719 3968 ft 120 kts 81°
2026-05-05 18:51 50.51521 -4.22428 3972 ft 118 kts 81°
2026-05-05 18:51 50.51555 -4.21123 3976 ft 121 kts 80°
2026-05-05 18:51 50.51576 -4.19807 3977 ft 120 kts 79°
2026-05-05 18:51 50.51615 -4.18524 3977 ft 118 kts 78°
2026-05-05 18:52 50.51662 -4.17217 3981 ft 119 kts 79°
2026-05-05 18:52 50.51713 -4.15938 3977 ft 122 kts 79°
2026-05-05 18:52 50.51780 -4.14589 3978 ft 119 kts 78°
2026-05-05 18:52 50.51854 -4.13307 3979 ft 119 kts 79°
2026-05-05 18:53 50.51926 -4.12013 3985 ft 120 kts 79°
2026-05-05 18:53 50.52004 -4.10698 3983 ft 121 kts 79°
2026-05-05 18:53 50.52087 -4.09381 3979 ft 122 kts 79°
2026-05-05 18:53 50.52176 -4.08055 3972 ft 123 kts 79°
2026-05-05 18:54 50.52268 -4.06724 3969 ft 123 kts 79°
2026-05-05 18:54 50.52359 -4.05403 3970 ft 121 kts 79°
2026-05-05 18:54 50.52440 -4.04084 3980 ft 122 kts 79°
2026-05-05 18:54 50.52516 -4.02891 3976 ft 121 kts 80°
2026-05-05 18:55 50.52603 -4.01573 3984 ft 123 kts 79°
2026-05-05 18:55 50.52697 -4.00241 3985 ft 122 kts 79°
2026-05-05 18:55 50.52770 -3.98915 3984 ft 122 kts 80°
2026-05-05 18:55 50.52836 -3.97591 3984 ft 121 kts 79°
2026-05-05 18:56 50.52912 -3.96267 3981 ft 122 kts 80°
2026-05-05 18:56 50.52994 -3.94954 3982 ft 120 kts 79°
2026-05-05 18:56 50.53087 -3.93626 3982 ft 123 kts 79°
2026-05-05 18:56 50.53177 -3.92354 3976 ft 120 kts 79°
2026-05-05 18:57 50.53258 -3.91047 3984 ft 120 kts 79°
2026-05-05 18:57 50.53325 -3.89746 3981 ft 120 kts 79°
2026-05-05 18:57 50.53411 -3.88430 3981 ft 121 kts 78°
2026-05-05 18:57 50.53489 -3.87110 3979 ft 121 kts 79°
2026-05-05 18:58 50.53580 -3.85795 3974 ft 120 kts 79°
2026-05-05 18:58 50.53657 -3.84507 3962 ft 116 kts 79°
2026-05-05 18:58 50.53735 -3.83250 3968 ft 117 kts 79°
2026-05-05 18:58 50.53807 -3.81973 3976 ft 117 kts 78°
2026-05-05 18:59 50.53899 -3.80687 3979 ft 118 kts 79°
2026-05-05 18:59 50.53948 -3.79983 3982 ft 118 kts 77°
2026-05-05 18:59 50.54125 -3.78615 3987 ft 120 kts 74°
2026-05-05 18:59 50.54236 -3.77770 3987 ft 118 kts 73°
2026-05-05 19:00 50.54408 -3.76508 3980 ft 116 kts 74°
2026-05-05 19:00 50.54617 -3.74852 3977 ft 117 kts 74°
2026-05-05 19:00 50.54778 -3.73586 3981 ft 118 kts 73°
2026-05-05 19:00 50.54892 -3.72729 3989 ft 120 kts 73°
2026-05-05 19:01 50.55075 -3.71440 3984 ft 120 kts 73°
2026-05-05 19:01 50.55241 -3.70151 3979 ft 120 kts 73°
2026-05-05 19:01 50.55392 -3.68877 3981 ft 120 kts 74°
2026-05-05 19:01 50.55539 -3.67576 3986 ft 122 kts 75°
2026-05-05 19:02 50.55688 -3.66269 3984 ft 121 kts 75°
2026-05-05 19:02 50.55840 -3.64963 3984 ft 121 kts 75°
2026-05-05 19:02 50.55990 -3.63660 3983 ft 121 kts 75°
2026-05-05 19:02 50.56141 -3.62355 3983 ft 121 kts 75°
2026-05-05 19:03 50.56298 -3.61059 3985 ft 120 kts 73°
2026-05-05 19:03 50.56477 -3.59770 3983 ft 120 kts 73°
2026-05-05 19:03 50.56662 -3.58486 3984 ft 121 kts 72°
2026-05-05 19:03 50.56799 -3.57537 3981 ft 120 kts 72°
2026-05-05 19:04 50.56983 -3.56253 3985 ft 121 kts 72°
2026-05-05 19:04 50.57161 -3.54959 3988 ft 121 kts 73°
2026-05-05 19:04 50.57337 -3.53659 3988 ft 122 kts 72°
2026-05-05 19:04 50.57516 -3.52362 3982 ft 122 kts 72°
2026-05-05 19:05 50.57705 -3.51060 3979 ft 122 kts 72°
2026-05-05 19:05 50.57897 -3.49777 3979 ft 120 kts 72°
2026-05-05 19:05 50.58081 -3.48487 3979 ft 120 kts 72°
2026-05-05 19:05 50.58259 -3.47209 3978 ft 120 kts 72°
2026-05-05 19:06 50.58451 -3.45928 3975 ft 121 kts 72°
2026-05-05 19:06 50.58643 -3.44646 3979 ft 119 kts 72°
2026-05-05 19:06 50.58829 -3.43377 3979 ft 119 kts 72°
2026-05-05 19:06 50.59018 -3.42096 3981 ft 120 kts 72°
2026-05-05 19:07 50.59203 -3.40809 3984 ft 120 kts 72°
2026-05-05 19:07 50.59388 -3.39538 3982 ft 121 kts 72°
2026-05-05 19:07 50.59581 -3.38249 3982 ft 121 kts 72°
2026-05-05 19:07 50.59747 -3.37164 3980 ft 121 kts 72°
2026-05-05 19:08 50.59938 -3.35879 3977 ft 120 kts 72°
2026-05-05 19:08 50.60127 -3.34597 3977 ft 120 kts 72°
2026-05-05 19:08 50.60311 -3.33315 3976 ft 120 kts 72°
2026-05-05 19:08 50.60498 -3.32035 3977 ft 120 kts 72°
2026-05-05 19:09 50.60690 -3.30760 3979 ft 120 kts 72°
2026-05-05 19:09 50.60886 -3.29480 3978 ft 120 kts 72°
2026-05-05 19:09 50.61080 -3.28203 3978 ft 120 kts 72°
2026-05-05 19:09 50.61269 -3.26927 3979 ft 120 kts 72°
2026-05-05 19:10 50.61464 -3.25648 3983 ft 120 kts 72°
2026-05-05 19:10 50.61639 -3.24362 3978 ft 120 kts 71°
2026-05-05 19:10 50.61814 -3.23080 3978 ft 119 kts 71°
2026-05-05 19:10 50.61992 -3.21807 3977 ft 119 kts 71°
2026-05-05 19:11 50.62171 -3.20531 3976 ft 120 kts 71°
2026-05-05 19:11 50.62344 -3.19249 3977 ft 120 kts 71°
2026-05-05 19:11 50.62496 -3.18110 3974 ft 119 kts 71°
2026-05-05 19:11 50.62673 -3.16837 3978 ft 119 kts 71°
2026-05-05 19:12 50.62855 -3.15554 3978 ft 121 kts 71°
2026-05-05 19:12 50.63036 -3.14273 3978 ft 121 kts 71°
2026-05-05 19:12 50.63215 -3.12987 3974 ft 120 kts 72°
2026-05-05 19:12 50.63379 -3.11692 3960 ft 121 kts 73°
2026-05-05 19:13 50.63541 -3.10388 3959 ft 122 kts 73°
2026-05-05 19:13 50.63685 -3.09216 3954 ft 122 kts 73°
2026-05-05 19:13 50.63846 -3.07909 3960 ft 121 kts 73°
2026-05-05 19:13 50.64008 -3.06614 3957 ft 120 kts 72°
2026-05-05 19:14 50.64172 -3.05318 3957 ft 120 kts 72°
2026-05-05 19:14 50.64340 -3.04019 3956 ft 121 kts 72°
2026-05-05 19:14 50.64513 -3.02721 3957 ft 121 kts 72°
2026-05-05 19:14 50.64683 -3.01425 3958 ft 120 kts 72°
2026-05-05 19:15 50.64851 -3.00129 3959 ft 121 kts 72°
2026-05-05 19:15 50.65014 -2.98854 3955 ft 122 kts 72°
2026-05-05 19:15 50.65187 -2.97526 3957 ft 121 kts 72°
2026-05-05 19:15 50.65357 -2.96231 3956 ft 121 kts 72°
2026-05-05 19:16 50.65533 -2.94961 3958 ft 120 kts 72°
2026-05-05 19:16 50.65694 -2.93673 3957 ft 119 kts 72°
2026-05-05 19:16 50.65898 -2.92407 3958 ft 120 kts 72°
2026-05-05 19:16 50.66064 -2.91119 3959 ft 119 kts 75°
2026-05-05 19:17 50.66215 -2.89824 3957 ft 119 kts 74°
2026-05-05 19:17 50.66354 -2.88627 3954 ft 120 kts 74°
2026-05-05 19:17 50.66460 -2.87320 3957 ft 120 kts 78°
2026-05-05 19:17 50.66530 -2.86120 3957 ft 121 kts 79°
2026-05-05 19:18 50.66592 -2.84974 3958 ft 120 kts 79°
2026-05-05 19:18 50.66659 -2.83664 3956 ft 120 kts 81°
2026-05-05 19:18 50.66679 -2.82347 3960 ft 120 kts 83°
2026-05-05 19:18 50.66691 -2.81027 3962 ft 121 kts 83°
2026-05-05 19:19 50.66702 -2.79698 3964 ft 121 kts 83°
2026-05-05 19:19 50.66724 -2.78374 3960 ft 120 kts 84°
2026-05-05 19:19 50.66727 -2.77057 3960 ft 121 kts 84°
2026-05-05 19:19 50.66740 -2.75723 3955 ft 122 kts 84°
2026-05-05 19:20 50.66750 -2.74404 3960 ft 121 kts 84°
2026-05-05 19:20 50.66766 -2.73056 3959 ft 122 kts 84°
2026-05-05 19:20 50.66783 -2.71741 3956 ft 121 kts 84°
2026-05-05 19:20 50.66797 -2.70415 3958 ft 121 kts 84°
2026-05-05 19:21 50.66807 -2.69084 3959 ft 122 kts 84°
2026-05-05 19:21 50.66818 -2.67739 3959 ft 122 kts 85°
2026-05-05 19:21 50.66844 -2.66400 3959 ft 122 kts 84°
2026-05-05 19:21 50.66869 -2.65162 3952 ft 122 kts 84°
2026-05-05 19:22 50.66870 -2.63826 3959 ft 122 kts 85°
2026-05-05 19:22 50.66886 -2.62474 3956 ft 123 kts 85°
2026-05-05 19:22 50.66895 -2.61144 3952 ft 119 kts 83°
2026-05-05 19:22 50.66914 -2.59860 3949 ft 118 kts 83°
2026-05-05 19:23 50.66922 -2.58569 3946 ft 118 kts 83°
2026-05-05 19:23 50.66932 -2.57269 3952 ft 118 kts 84°
2026-05-05 19:23 50.66947 -2.55991 3954 ft 116 kts 83°
2026-05-05 19:23 50.66966 -2.54718 3956 ft 115 kts 83°
2026-05-05 19:24 50.66974 -2.53455 3957 ft 116 kts 83°
2026-05-05 19:24 50.66985 -2.52185 3958 ft 116 kts 83°
2026-05-05 19:24 50.66952 -2.50900 3967 ft 118 kts 90°
2026-05-05 19:24 50.66858 -2.49608 3952 ft 120 kts 93°
2026-05-05 19:25 50.66724 -2.48314 3920 ft 119 kts 94°
2026-05-05 19:25 50.66562 -2.47032 3878 ft 119 kts 96°
2026-05-05 19:25 50.66365 -2.45758 3835 ft 120 kts 98°
2026-05-05 19:25 50.66185 -2.44475 3794 ft 120 kts 94°
2026-05-05 19:26 50.66093 -2.43176 3751 ft 118 kts 87°
2026-05-05 19:26 50.66092 -2.41982 3683 ft 118 kts 82°
2026-05-05 19:26 50.66158 -2.40701 3606 ft 117 kts 78°
2026-05-05 19:26 50.66239 -2.39415 3506 ft 119 kts 79°
2026-05-05 19:27 50.66295 -2.38166 3434 ft 118 kts 81°
2026-05-05 19:27 50.66325 -2.36873 3336 ft 118 kts 83°
2026-05-05 19:27 50.66324 -2.35573 3254 ft 119 kts 86°
2026-05-05 19:27 50.66285 -2.34269 3169 ft 119 kts 88°
2026-05-05 19:28 50.66201 -2.32967 3100 ft 119 kts 91°
2026-05-05 19:28 50.66093 -2.31683 3012 ft 118 kts 91°
2026-05-05 19:28 50.65962 -2.30389 2900 ft 121 kts 95°
2026-05-05 19:28 50.65742 -2.29114 2826 ft 121 kts 102°
2026-05-05 19:29 50.65421 -2.27867 2730 ft 124 kts 107°
2026-05-05 19:29 50.65061 -2.26647 2676 ft 122 kts 108°
2026-05-05 19:29 50.64701 -2.25414 2587 ft 124 kts 105°
2026-05-05 19:29 50.64374 -2.24167 2531 ft 122 kts 105°
2026-05-05 19:30 50.64018 -2.22935 2440 ft 125 kts 107°
2026-05-05 19:30 50.63646 -2.21741 2368 ft 125 kts 109°
2026-05-05 19:30 50.63275 -2.20516 2294 ft 125 kts 107°
2026-05-05 19:30 50.62913 -2.19272 2222 ft 125 kts 109°
2026-05-05 19:31 50.62478 -2.18078 2149 ft 127 kts 117°
2026-05-05 19:31 50.61969 -2.16933 2077 ft 128 kts 121°
2026-05-05 19:31 50.61400 -2.15852 1978 ft 130 kts 128°
2026-05-05 19:31 50.60723 -2.14899 1896 ft 131 kts 134°
2026-05-05 19:32 50.60049 -2.13949 1869 ft 129 kts 128°
2026-05-05 19:32 50.59512 -2.12880 1925 ft 122 kts 112°
2026-05-05 19:32 50.59228 -2.11621 1895 ft 121 kts 92°
2026-05-05 19:32 50.59222 -2.10365 1951 ft 112 kts 76°
2026-05-05 19:33 50.59385 -2.09161 1925 ft 112 kts 67°
2026-05-05 19:33 50.59641 -2.08034 1948 ft 109 kts 60°
2026-05-05 19:33 50.59977 -2.06970 1907 ft 108 kts 53°
2026-05-05 19:33 50.60398 -2.06001 1906 ft 107 kts 49°
2026-05-05 19:34 50.60829 -2.05051 1869 ft 106 kts 49°
2026-05-05 19:34 50.61243 -2.04079 1848 ft 107 kts 51°
2026-05-05 19:34 50.61646 -2.03091 1839 ft 107 kts 50°
2026-05-05 19:35 50.62530 -2.01259 1849 ft 105 kts 40°
2026-05-05 19:35 50.63067 -2.00492 1847 ft 103 kts 37°
2026-05-05 19:35 50.63596 -1.99740 1832 ft 103 kts 38°
2026-05-05 19:35 50.64117 -1.98967 1841 ft 103 kts 39°
2026-05-05 19:36 50.64629 -1.98174 1855 ft 103 kts 39°
2026-05-05 19:36 50.65158 -1.97415 1861 ft 103 kts 36°
2026-05-05 19:36 50.65701 -1.96693 1864 ft 101 kts 36°
2026-05-05 19:36 50.66214 -1.95938 1860 ft 102 kts 39°
2026-05-05 19:37 50.66720 -1.95154 1876 ft 102 kts 38°
2026-05-05 19:37 50.67277 -1.94465 1888 ft 102 kts 29°
2026-05-05 19:37 50.67905 -1.93976 1860 ft 100 kts 15°
2026-05-05 19:37 50.68588 -1.93804 1832 ft 98 kts
2026-05-05 19:38 50.69255 -1.93829 1831 ft 95 kts 357°
2026-05-05 19:38 50.69919 -1.93980 1794 ft 97 kts 352°
2026-05-05 19:38 50.70526 -1.94210 1710 ft 86 kts 349°
2026-05-05 19:38 50.71126 -1.94469 1507 ft 89 kts 348°
2026-05-05 19:39 50.71710 -1.94742 1433 ft 87 kts 347°
2026-05-05 19:39 50.72287 -1.95027 1338 ft 87 kts 346°
2026-05-05 19:39 50.72867 -1.95278 1290 ft 86 kts 352°
2026-05-05 19:39 50.73470 -1.95235 1199 ft 88 kts 14°
2026-05-05 19:40 50.74025 -1.94861 1184 ft 86 kts 21°
2026-05-05 19:40 50.74577 -1.94524 1150 ft 87 kts 13°
2026-05-05 19:40 50.75156 -1.94308 1182 ft 85 kts 10°
2026-05-05 19:40 50.75726 -1.93959 1122 ft 91 kts 31°
2026-05-05 19:41 50.76163 -1.93258 1097 ft 91 kts 49°
2026-05-05 19:41 50.76442 -1.92406 1020 ft 94 kts 66°
2026-05-05 19:41 50.76682 -1.91442 924 ft 97 kts 60°
2026-05-05 19:41 50.76940 -1.90462 829 ft 95 kts 65°
2026-05-05 19:42 50.77148 -1.89454 670 ft 97 kts 69°
2026-05-05 19:42 50.77306 -1.88455 562 ft 94 kts 65°
2026-05-05 19:42 50.77487 -1.87455 426 ft 94 kts 72°
2026-05-05 19:42 50.77644 -1.86446 273 ft 97 kts 72°
2026-05-05 19:43 50.77811 -1.85426 118 ft 94 kts 71°
2026-05-05 19:43 50.77971 -1.84509 39 ft 73 kts 69°
2026-05-05 19:43 50.78079 -1.83900 38 ft 45 kts 74°
2026-05-05 19:43 50.78146 -1.83521 40 ft 28 kts 76°
2026-05-05 19:44 50.78183 -1.83288 39 ft 17 kts 76°
2026-05-05 19:44 50.78213 -1.83111 38 ft 18 kts 54°
2026-05-05 19:44 50.78276 -1.83163 38 ft 10 kts 298°
2026-05-05 19:44 50.78300 -1.83235 38 ft 6 kts 298°
2026-05-05 19:45 50.78317 -1.83282 38 ft 3 kts 299°
2026-05-05 19:45 50.78322 -1.83296 38 ft 1 kts 300°
2026-05-05 19:45 50.78340 -1.83348 38 ft 14 kts 298°
2026-05-05 19:45 50.78385 -1.83505 38 ft 12 kts 285°
2026-05-05 19:46 50.78404 -1.83610 38 ft 9 kts 284°
2026-05-05 19:46 50.78421 -1.83709 38 ft 10 kts 284°
2026-05-05 19:46 50.78438 -1.83816 39 ft 11 kts 283°
2026-05-05 19:46 50.78459 -1.83951 39 ft 14 kts 284°
2026-05-05 19:47 50.78507 -1.84079 39 ft 14 kts 335°
2026-05-05 19:47 50.78599 -1.84119 39 ft 14 kts 350°
2026-05-05 19:47 50.78697 -1.84160 39 ft 15 kts 344°
2026-05-05 19:47 50.78798 -1.84208 39 ft 15 kts 329°
2026-05-05 19:48 50.78823 -1.84319 39 ft 10 kts 239°
2026-05-05 19:48 50.78804 -1.84353 39 ft 0 kts 216°
2026-05-05 19:48 50.78796 -1.84372 39 ft 6 kts 249°
2026-05-05 19:49 50.78787 -1.84448 40 ft 10 kts 260°
2026-05-05 19:49 50.78778 -1.84592 40 ft 14 kts 270°
2026-05-05 19:49 50.78779 -1.84734 40 ft 11 kts 271°
2026-05-05 19:49 50.78781 -1.84835 40 ft 9 kts 270°
2026-05-05 19:50 50.78745 -1.84908 40 ft 8 kts 197°
2026-05-05 19:50 50.78710 -1.84891 40 ft 1 kts 87°
2026-05-05 19:50 50.78710 -1.84886 40 ft 0 kts 84°